QZS-3 (MICHIBIKI-3)

Last updated on Nov. 18, 2019, 4:21 a.m. UTC

1 42917U 17048A   19320.94990041 -.00000339  00000-0  00000+0 0  9999
2 42917   0.0690 136.2831 0002034 122.5263 265.9575  1.00272649  8260
UTC
Height (km)
Latitude
Longitude
Inclination
Orbital Period
UTC large
Height (km)
Speed (km/s)
/
Latitude / Longitude
Inclination (degrees)
Orbital Period (minutes)
Azimuth
Elevation
Range (km)
Doppler Factor
iOS Compass Heading
iOS Angle

Next 30 passes for location: Hong Kong

Rise time Rise Azimuth (degrees) Set time Set Azimuth (degrees) Duration Max altitude (degrees)

No matching passes for this satellites